Location: Deerlick Astronomy Village
(33.5614°N, 82.7631°W)
Time: 15:12:29
(UTC-04:00)

Iridium 66 - Visible Passes

Search period start: 03 September 2015 00:00
Search period end: 13 September 2015 00:00
Orbit: 776 x 779 km, 86.4° (Epoch: 02 September)

Date Brightness Start Highest point End Pass type
(mag) Time Alt. Az. Time Alt. Az. Time Alt. Az.
03 Sep 8.6 23:17:53 10° N 23:18:31 13° N 23:18:31 13° N visible
04 Sep 8.5 22:44:45 10° NNE 22:45:05 12° NNE 22:45:05 12° NNE visible
05 Sep 8.9 23:51:44 10° NNW 23:52:08 12° NNW 23:52:08 12° NNW visible
06 Sep 8.6 23:17:56 10° N 23:18:44 15° N 23:18:44 15° N visible
07 Sep 8.4 22:44:33 10° N 22:45:20 14° NNE 22:45:20 14° NNE visible
08 Sep 8.4 22:11:37 10° NNE 22:11:56 11° NNE 22:11:56 11° NNE visible
08 Sep 9.0 23:52:13 10° NNW 23:52:24 11° NNW 23:52:24 11° NNW visible
09 Sep 8.6 23:18:07 10° NNW 23:19:02 15° NNW 23:19:02 15° NNW visible
10 Sep 8.3 22:44:29 10° N 22:45:39 17° N 22:45:39 17° N visible
11 Sep 8.2 22:11:16 10° NNE 22:12:16 15° NNE 22:12:16 15° NNE visible
12 Sep 8.3 21:38:35 10° NNE 21:38:56 11° NE 21:38:56 11° NE visible
12 Sep 8.7 23:18:28 10° NNW 23:19:25 15° NNW 23:19:25 15° NNW visible
